Wind_Speed
17 16 14 13 13 12 12 12 11 11 11 10 10 11 12 13 14 15 14 14 14 15 17 18 20 22 25 22 20 20 20 20 20 21 22 23 23 25 27 28 28 28
14 13 12 11 10 10 11 12 12 11 10 10 10 11 12 13 14 15 15 15 16 17 19 21 21 23 26 23 19 20 21 21 21 22 23 23 22 23 26 27 28 28
12 11 11 10 11 11 11 12 11 10 10 11 11 12 13 14 15 14 15 16 17 17 19 22 23 22 24 23 21 23 22 21 20 21 22 23 23 24 25 26 27 27
12 11 11 12 12 12 11 11 10 10 11 12 12 13 15 15 16 16 16 16 17 17 17 20 23 21 20 21 22 23 22 20 20 21 22 22 22 23 24 25 26 26
12 12 13 14 13 12 11 11 11 11 12 13 14 15 16 16 17 17 17 17 17 17 17 19 20 19 18 18 19 21 22 21 20 22 23 22 23 23 23 25 26 26
13 14 15 15 13 12 12 12 13 13 13 14 15 16 17 18 18 19 19 19 17 17 18 19 19 18 17 17 18 21 23 22 22 23 24 24 25 25 23 24 25 26
15 16 16 15 14 13 13 14 14 15 15 16 17 18 19 19 19 20 20 20 19 18 18 18 18 18 18 18 19 21 23 24 24 25 25 25 27 27 25 25 25 26
17 17 16 16 16 15 15 16 17 17 17 18 19 19 20 20 21 20 20 20 20 20 19 19 18 17 18 20 21 21 23 25 25 25 26 26 27 28 27 27 27 26
18 18 18 18 17 17 17 18 18 19 19 20 20 21 21 21 22 21 21 21 21 20 19 19 18 18 18 19 21 23 23 24 25 25 26 26 26 26 27 29 30 28
18 18 18 18 19 19 19 19 20 20 20 21 21 22 21 21 22 22 23 22 22 21 19 19 19 19 19 19 20 23 25 26 26 26 26 26 26 26 26 29 30 30
18 18 18 19 20 20 20 20 20 20 20 21 21 22 21 21 22 22 23 23 23 22 21 21 21 20 20 20 20 22 24 27 28 28 28 29 29 27 27 28 29 29
18 17 18 19 19 19 19 19 19 20 20 21 21 21 22 22 22 22 23 23 24 24 24 23 24 23 21 21 22 22 22 24 27 28 28 30 30 28 28 29 29 27
19 18 18 19 19 19 19 19 20 20 21 21 21 22 22 22 23 23 23 24 25 25 25 26 26 26 24 23 23 23 22 23 24 26 27 28 29 29 30 31 30 28
20 20 20 20 21 21 21 21 21 22 23 23 23 23 24 24 24 25 25 25 26 26 26 27 27 27 27 27 26 25 25 24 24 25 27 28 29 29 30 31 31 30
22 23 23 23 24 24 24 24 24 25 25 26 25 25 26 26 27 28 28 28 28 27 27 28 28 28 29 29 29 28 27 26 25 26 27 27 28 29 31 31 30 31
23 24 24 25 25 25 26 26 27 27 27 27 28 28 28 29 30 30 31 31 31 30 29 28 28 29 29 30 30 30 29 28 26 26 27 28 27 28 30 32 31 30
23 23 24 24 25 26 27 27 28 28 28 29 29 30 31 31 32 33 33 34 34 33 32 30 29 29 29 30 30 30 30 29 27 26 27 27 27 28 29 31 31 31
23 23 24 25 25 26 26 27 28 28 29 30 30 31 32 32 33 34 34 34 35 35 34 33 31 30 30 30 31 31 30 28 27 26 26 26 26 26 28 29 30 31
22 23 24 24 24 25 25 26 27 27 28 29 30 31 31 32 32 32 32 33 33 33 33 33 31 30 29 30 32 32 30 28 25 24 25 25 25 24 26 28 29 30
21 21 22 22 23 23 24 24 25 25 26 28 28 29 30 29 29 29 29 30 31 31 31 31 31 29 28 29 31 32 32 30 27 25 24 25 25 25 25 27 29 29
19 19 20 21 21 22 23 23 24 24 25 26 27 28 29 29 29 28 28 28 28 29 30 31 31 29 28 28 30 31 32 32 30 28 26 25 26 26 26 26 28 29
18 19 19 20 21 22 22 23 24 24 25 25 26 27 28 28 29 28 28 27 27 27 28 29 30 29 27 26 27 29 31 31 31 30 29 27 26 26 27 27 27 29
17 18 19 19 20 21 22 23 24 24 25 25 26 26 27 27 28 28 28 27 27 27 27 27 27 27 26 25 25 27 28 29 29 29 28 27 26 25 26 27 27 29
17 18 19 20 20 22 22 23 24 24 25 26 26 26 27 27 28 28 29 28 28 27 26 26 26 26 25 24 23 24 25 25 26 27 25 23 22 21 22 24 26 27
18 18 19 20 21 22 22 23 24 24 25 25 26 26 26 27 28 28 28 28 28 27 26 25 24 23 23 22 20 20 21 22 24 23 21 19 19 19 18 18 20 23
17 18 19 20 21 21 22 22 23 23 23 24 24 25 25 26 26 27 27 27 27 27 26 24 22 21 21 20 19 18 18 20 21 20 17 16 17 18 17 16 16 18
Wind_Direction
300 301 301 301 303 305 306 307 308 311 315 321 323 324 326 327 324 320 313 302 296 295 296 297 294 285 276 267 260 260 262 259 259 260 258 253 250 250 250 249 247 244
299 298 297 296 299 302 303 305 307 311 318 323 323 323 326 328 328 325 320 312 303 299 300 304 305 293 283 278 266 260 262 261 261 263 265 263 258 254 251 250 250 247
292 290 292 292 292 295 298 301 303 307 315 319 320 322 324 326 329 328 324 318 311 306 305 310 312 299 286 281 269 261 262 262 264 267 270 270 267 262 259 258 256 252
286 286 290 293 292 293 295 295 297 302 311 316 319 321 323 325 327 327 325 324 321 316 310 311 314 307 291 279 267 260 260 260 264 270 271 270 270 270 271 270 267 262
282 284 289 293 293 293 292 289 292 301 309 314 317 319 322 324 325 324 324 325 325 322 314 310 313 311 297 282 271 265 262 260 263 269 270 271 273 272 272 273 271 268
283 286 289 292 292 290 288 287 291 298 304 308 312 315 319 321 323 323 322 323 325 325 319 314 313 310 299 285 275 270 267 264 264 267 268 270 273 272 271 272 273 272
287 288 290 291 291 289 287 287 290 294 298 301 306 311 315 318 320 320 320 321 323 325 324 320 315 309 301 289 278 271 267 263 263 264 265 267 270 273 274 273 274 274
289 289 290 289 289 289 288 289 290 292 294 297 302 306 309 312 315 316 317 317 319 323 324 324 319 309 299 290 281 273 266 262 260 261 263 265 268 271 272 272 273 276
290 290 290 289 288 288 288 288 289 290 292 294 297 302 304 306 309 312 313 313 315 320 323 322 318 309 298 288 281 276 270 265 262 261 263 266 267 269 268 268 272 277
286 287 288 286 285 284 284 284 285 287 289 292 294 297 299 301 305 308 310 311 312 316 318 317 312 307 301 292 284 279 276 272 268 266 265 266 267 269 270 270 271 274
283 283 284 283 281 282 282 283 285 286 288 289 291 293 294 296 300 303 305 307 309 310 312 311 307 305 303 299 293 286 281 276 273 271 269 269 269 271 273 273 272 272
286 283 283 282 282 283 284 285 287 288 288 288 288 289 291 293 295 298 300 302 304 305 307 306 303 303 304 303 300 296 291 284 278 275 274 273 272 271 270 270 270 270
289 285 282 282 283 284 285 287 288 289 289 288 288 287 288 290 292 294 296 297 298 299 300 300 300 301 302 300 298 297 294 291 285 281 278 275 274 271 269 269 269 268
288 285 283 284 285 285 286 289 291 293 292 290 289 287 287 288 289 291 293 294 295 295 295 296 297 297 296 294 294 293 292 291 288 285 282 278 276 272 269 269 269 268
288 286 285 286 287 287 288 291 294 295 294 292 290 289 288 289 290 291 292 293 294 294 294 294 295 295 294 292 291 291 291 290 289 287 285 282 279 275 270 266 266 266
290 288 287 287 287 288 290 292 294 295 294 293 291 291 291 291 292 293 293 294 294 295 294 293 293 293 292 291 291 290 289 289 289 288 286 284 279 275 271 267 264 263
291 290 289 289 288 289 291 292 293 292 292 292 292 292 293 293 294 294 295 296 296 296 296 295 294 292 291 290 290 289 290 290 290 289 288 286 280 274 271 268 265 262
291 290 290 290 290 290 291 291 291 291 292 292 292 293 293 294 295 295 296 297 297 298 299 298 297 295 292 290 289 289 289 290 291 291 290 290 285 276 270 268 266 262
294 293 293 293 293 294 294 293 294 295 295 294 294 294 295 296 297 298 298 299 299 299 300 301 301 299 295 293 291 291 291 290 291 291 290 292 291 281 271 266 266 264
299 298 298 298 298 299 298 297 298 299 298 298 297 297 298 298 299 300 301 301 301 301 301 302 303 301 299 296 293 293 294 294 292 290 290 291 292 288 276 267 265 264
304 303 303 303 302 301 300 299 300 301 300 300 300 299 299 299 300 301 302 302 302 302 301 301 301 301 300 298 295 294 296 297 296 294 292 291 291 289 283 272 266 264
307 306 306 305 304 304 303 302 302 302 300 300 301 301 301 300 301 302 303 303 302 301 301 300 301 301 300 298 296 295 295 296 297 295 294 294 292 289 285 278 269 264
310 309 309 308 308 307 307 306 306 306 305 304 303 303 302 302 302 303 303 303 304 303 302 302 302 303 302 300 297 296 295 296 296 296 295 295 294 290 285 279 272 265
314 314 314 313 313 312 312 312 312 311 310 309 307 307 305 304 305 306 306 307 308 308 307 307 307 306 305 303 299 297 299 300 299 299 299 297 295 291 284 278 273 267
320 320 319 318 319 319 319 318 318 318 317 316 315 314 312 310 309 309 309 311 312 312 313 312 311 309 309 307 302 299 303 305 303 302 304 305 302 298 293 284 276 269
327 326 325 325 325 326 326 326 326 326 324 323 322 320 319 318 316 315 314 314 314 316 316 315 313 312 312 310 305 302 305 308 307 305 305 307 307 306 305 297 284 272
Height
3141 3140 3139 3139 3139 3138 3138 3137 3137 3137 3136 3136 3135 3134 3133 3133 3131 3130 3130 3129 3128 3127 3126 3125 3124 3122 3120 3119 3121 3121 3120 3120 3121 3120 3118 3118 3119 3119 3120 3121 3121 3121
3139 3138 3138 3138 3137 3137 3136 3136 3135 3135 3134 3134 3133 3132 3131 3130 3129 3128 3127 3126 3125 3124 3123 3122 3120 3119 3116 3116 3118 3118 3117 3117 3117 3117 3115 3115 3116 3116 3116 3116 3116 3117
3137 3137 3136 3136 3136 3136 3135 3134 3134 3133 3133 3132 3131 3131 3129 3128 3127 3126 3124 3123 3123 3122 3121 3119 3117 3116 3113 3113 3115 3114 3113 3114 3114 3114 3113 3113 3113 3113 3113 3113 3113 3113
3135 3135 3135 3134 3134 3134 3133 3132 3132 3131 3131 3130 3129 3128 3127 3126 3124 3123 3122 3121 3120 3119 3118 3117 3115 3113 3112 3111 3112 3112 3111 3111 3111 3111 3111 3111 3111 3110 3110 3110 3110 3111
3133 3133 3132 3132 3132 3132 3131 3131 3130 3130 3129 3128 3128 3126 3125 3124 3122 3121 3120 3118 3118 3117 3115 3114 3113 3111 3110 3110 3110 3110 3110 3110 3110 3108 3108 3108 3108 3107 3107 3107 3107 3107
3131 3131 3130 3130 3130 3129 3129 3129 3128 3128 3127 3127 3126 3124 3123 3121 3120 3118 3117 3116 3115 3114 3113 3112 3111 3110 3109 3108 3108 3108 3108 3108 3107 3105 3104 3105 3104 3103 3104 3104 3104 3104
3129 3129 3128 3128 3127 3127 3127 3127 3126 3126 3125 3125 3124 3122 3121 3119 3118 3116 3115 3114 3113 3112 3111 3110 3109 3108 3107 3106 3105 3104 3104 3103 3103 3102 3102 3102 3101 3100 3100 3101 3100 3101
3127 3127 3126 3126 3125 3125 3125 3125 3124 3123 3123 3122 3121 3120 3119 3117 3116 3114 3113 3111 3110 3110 3109 3108 3106 3105 3104 3103 3101 3100 3099 3099 3099 3099 3098 3099 3098 3098 3097 3097 3097 3098
3125 3125 3124 3124 3123 3123 3123 3122 3122 3121 3120 3120 3119 3117 3116 3115 3113 3112 3110 3109 3108 3108 3107 3105 3104 3102 3100 3099 3098 3097 3096 3096 3095 3095 3095 3095 3095 3094 3094 3094 3094 3096
3124 3123 3123 3122 3121 3121 3121 3120 3119 3119 3118 3117 3116 3115 3114 3112 3111 3109 3108 3106 3106 3105 3104 3102 3100 3099 3097 3096 3095 3094 3094 3093 3093 3092 3092 3091 3091 3091 3091 3090 3091 3092
3122 3121 3121 3120 3119 3119 3118 3117 3117 3116 3115 3114 3113 3112 3111 3110 3108 3107 3105 3104 3102 3102 3101 3099 3097 3096 3095 3094 3093 3092 3091 3090 3089 3089 3089 3088 3088 3088 3088 3087 3087 3088
3120 3119 3119 3117 3116 3116 3115 3114 3114 3113 3112 3111 3110 3109 3108 3107 3106 3105 3103 3102 3100 3099 3097 3095 3094 3093 3093 3091 3090 3089 3088 3087 3086 3086 3085 3085 3085 3085 3084 3083 3083 3084
3118 3117 3116 3115 3114 3113 3112 3111 3111 3110 3109 3108 3107 3106 3105 3104 3103 3102 3101 3099 3098 3096 3094 3092 3090 3090 3089 3088 3086 3085 3084 3083 3082 3081 3081 3081 3081 3081 3080 3079 3079 3080
3115 3115 3114 3112 3111 3110 3109 3108 3107 3106 3105 3104 3103 3103 3102 3101 3100 3099 3098 3096 3095 3093 3092 3089 3088 3087 3085 3084 3082 3081 3080 3080 3079 3077 3076 3076 3076 3076 3076 3076 3075 3076
3113 3112 3111 3110 3108 3107 3106 3105 3104 3103 3102 3101 3100 3099 3098 3097 3096 3095 3094 3093 3091 3090 3088 3087 3085 3083 3081 3079 3078 3077 3076 3076 3075 3073 3072 3071 3071 3071 3071 3071 3071 3071
3110 3109 3108 3107 3105 3104 3103 3101 3100 3099 3098 3097 3096 3095 3094 3093 3092 3091 3090 3088 3087 3086 3085 3083 3081 3080 3078 3075 3074 3072 3072 3071 3071 3069 3067 3066 3066 3066 3066 3066 3066 3066
3107 3106 3105 3103 3102 3101 3100 3098 3097 3096 3094 3093 3092 3091 3090 3089 3088 3087 3085 3084 3082 3081 3080 3079 3078 3076 3074 3072 3070 3068 3067 3067 3066 3065 3063 3061 3060 3060 3060 3060 3061 3061
3104 3103 3101 3100 3099 3098 3097 3095 3094 3092 3091 3090 3089 3088 3086 3085 3084 3082 3081 3079 3078 3076 3075 3074 3073 3072 3070 3068 3065 3064 3063 3062 3061 3060 3059 3057 3055 3055 3055 3055 3055 3056
3101 3100 3098 3097 3096 3095 3093 3092 3090 3089 3087 3086 3085 3084 3082 3081 3080 3078 3077 3075 3074 3072 3071 3069 3068 3067 3066 3063 3061 3059 3058 3058 3057 3056 3054 3052 3051 3050 3049 3049 3049 3050
3099 3097 3096 3094 3093 3091 3090 3089 3087 3086 3084 3082 3081 3080 3078 3077 3076 3075 3073 3072 3070 3068 3067 3065 3064 3062 3061 3059 3057 3055 3053 3053 3053 3051 3050 3048 3046 3045 3045 3044 3044 3044
3097 3095 3094 3092 3090 3089 3087 3086 3085 3083 3081 3080 3078 3076 3075 3073 3072 3071 3070 3068 3066 3065 3063 3061 3060 3058 3057 3055 3053 3051 3049 3048 3048 3047 3045 3044 3042 3041 3040 3039 3039 3039
3095 3093 3092 3090 3088 3086 3085 3083 3082 3080 3079 3077 3075 3073 3071 3070 3069 3067 3066 3065 3063 3061 3060 3058 3056 3054 3053 3052 3050 3048 3046 3044 3043 3042 3041 3040 3038 3037 3036 3035 3034 3034
3093 3091 3089 3088 3086 3084 3082 3081 3079 3078 3076 3074 3073 3071 3069 3067 3065 3063 3062 3061 3060 3058 3056 3055 3053 3051 3049 3048 3046 3044 3042 3041 3039 3038 3037 3035 3034 3033 3031 3030 3030 3029
3091 3089 3088 3086 3084 3082 3080 3079 3077 3075 3073 3071 3070 3068 3066 3064 3062 3060 3058 3057 3056 3054 3053 3051 3050 3048 3045 3044 3042 3041 3039 3037 3035 3034 3033 3032 3030 3029 3028 3026 3025 3025
3089 3088 3086 3084 3082 3081 3079 3077 3075 3073 3071 3069 3067 3065 3063 3061 3059 3057 3056 3054 3052 3051 3049 3048 3047 3045 3043 3041 3039 3038 3036 3034 3032 3030 3029 3028 3027 3026 3024 3023 3022 3021
3088 3086 3085 3083 3081 3079 3077 3076 3074 3072 3070 3068 3066 3064 3062 3060 3057 3055 3053 3051 3049 3047 3046 3045 3044 3042 3040 3038 3036 3035 3033 3031 3029 3028 3027 3025 3024 3023 3021 3020 3019 3018